Location: Alvediston
(51.0078°N, 2.0364°W)
Time: 09:28:23
(UTC+00:00)

STARLINK-74 - Pass Details

Date: 27 February 2020
Orbit: 529 x 530 km, 53.0° (Epoch: 05 April)

Event Time Altitude Azimuth Distance (km) Brightness Sun altitude
Rises 18:56:00 0° 272° (W) 2,670 9.3 -12.0°
Reaches altitude 10° 18:58:14 10° 276° (W) 1,781 7.8 -12.3°
Maximum altitude 19:02:15 64° 358° (N) 591 3.7 -13.0°
Enters shadow 19:04:49 21° 76° (ENE) 1,229 4.8 -13.4°
